Shaw Air Force Base, SC

11:02 AM EDT on August 24, 2016 (GMT -0400)
Shaw Air Force Base

Weather History for KSSC - February, 2013

Change the Weather History Date:

Sunday, February 10, 2013

  Actual Average Record
Temperature  
Mean Temperature 48 °F -  
Max Temperature 63 °F 56 °F 73 °F (2002)
Min Temperature 32 °F 35 °F 24 °F (2006)
Degree Days  
Heating Degree Days 18    
Moisture  
Dew Point 38 °F    
Average Humidity 65    
Maximum Humidity 94    
Minimum Humidity 23    
Precipitation  
Precipitation 0.15 in - - ()
Sea Level Pressure  
Sea Level Pressure 30.30 in    
Wind  
Wind Speed 6 mph (ENE)    
Max Wind Speed 16 mph    
Max Gust Speed 17 mph    
Visibility 9 miles    
Events Rain    
Averages and records for this station are not official NWS values.
T = Trace of Precipitation, MM = Missing Value Source: NWS Daily Summary

Daily Weather History Graph

Daily Weather History Graph

Search for Another Location

Airport or City:

Trip Planner

Search our weather history database for the weather conditions in past years. The results will help you decide how hot, cold, wet, or windy it might be!

Date:

Astronomy

Feb. 10, 2013 Rise Set
Actual Time 7:11 AM EST 6:01 PM EST
Civil Twilight 6:45 AM EST 6:27 PM EST
Nautical Twilight 6:15 AM EST 6:56 PM EST
Astronomical Twilight 5:46 AM EST 7:25 PM EST
Moon 7:03 AM EST (2/10) 6:45 PM EST (2/10)
Length of Visible Light 11h 41m
Length of Day
10h 50m
New Moon, 0% of the Moon is Illuminated
Feb 10
New Moon
Feb 17
First Quarter
Feb 25
Full
Mar 4
Last Quarter
Mar 11
New

Hourly Weather History & Observations

Time (EST) Temp. Windchill Dew Point Humidity Pressure Visibility Wind Dir Wind Speed Gust Speed Precip Events Conditions
12:55 AM 35.2 °F 31.2 °F 26.2 °F 70% 30.34 in 10.0 mi NNE 4.6 mph - N/A   Partly Cloudy
1:55 AM 34.9 °F - 23.7 °F 64% 30.35 in 10.0 mi Calm Calm - N/A   Scattered Clouds
2:55 AM 35.8 °F 33.0 °F 22.1 °F 58% 30.35 in 10.0 mi North 3.5 mph - N/A   Clear
3:55 AM 35.1 °F 32.2 °F 24.6 °F 66% 30.36 in 10.0 mi NNE 3.5 mph - N/A   Mostly Cloudy
4:55 AM 32.4 °F 29.1 °F 24.8 °F 74% 30.35 in 10.0 mi ENE 3.5 mph - N/A   Scattered Clouds
5:55 AM 36.9 °F 30.7 °F 27.3 °F 68% 30.36 in 10.0 mi NE 8.1 mph - N/A   Scattered Clouds
6:55 AM 38.5 °F 35.0 °F 27.5 °F 65% 30.39 in 10.0 mi SW 4.6 mph - N/A   Scattered Clouds
7:55 AM 37.6 °F 35.1 °F 28.9 °F 71% 30.42 in 10.0 mi NE 3.5 mph - N/A   Clear
8:55 AM 41.4 °F 38.4 °F 28.0 °F 59% 30.44 in 10.0 mi NE 4.6 mph - N/A   Clear
9:55 AM 45.5 °F 41.8 °F 29.1 °F 53% 30.43 in 10.0 mi East 6.9 mph - N/A   Clear
10:55 AM 54.0 °F - 27.7 °F 36% 30.43 in 10.0 mi ESE 9.2 mph - N/A   Clear
11:55 AM 58.5 °F - 20.8 °F 23% 30.41 in 10.0 mi ESE 9.2 mph - N/A   Partly Cloudy
12:55 PM 61.0 °F - 32.9 °F 35% 30.36 in 10.0 mi East 6.9 mph 16.1 mph N/A   Clear
1:55 PM 63.5 °F - 37.0 °F 38% 30.32 in 10.0 mi ESE 9.2 mph - N/A   Partly Cloudy
2:08 PM 62.6 °F - 37.4 °F 39% 30.31 in 10.0 mi ESE 12.7 mph 17.3 mph N/A   Light Drizzle
2:17 PM 62.6 °F - 37.4 °F 39% 30.30 in 10.0 mi SE 12.7 mph 17.3 mph N/A   Scattered Clouds
2:55 PM 62.2 °F - 38.3 °F 41% 30.29 in 10.0 mi SE 11.5 mph - 0.00 in   Mostly Cloudy
3:55 PM 61.5 °F - 39.4 °F 44% 30.29 in 10.0 mi SE 10.4 mph - N/A   Mostly Cloudy
4:55 PM 61.7 °F - 41.2 °F 47% 30.26 in 10.0 mi ESE 9.2 mph - N/A   Mostly Cloudy
5:55 PM 59.5 °F - 42.4 °F 53% 30.24 in 10.0 mi ESE 8.1 mph - N/A   Mostly Cloudy
6:55 PM 57.2 °F - 43.2 °F 59% 30.23 in 10.0 mi SE 10.4 mph - N/A   Scattered Clouds
7:55 PM 56.7 °F - 43.9 °F 62% 30.20 in 10.0 mi ESE 16.1 mph - N/A   Mostly Cloudy
8:55 PM 54.7 °F - 43.5 °F 66% 30.24 in 10.0 mi East 4.6 mph - N/A   Overcast
9:34 PM 53.6 °F - 42.8 °F 67% 30.25 in 10.0 mi ENE 6.9 mph - N/A   Light Drizzle
9:55 PM 53.1 °F - 44.2 °F 72% 30.25 in 10.0 mi ENE 6.9 mph - 0.00 in   Light Drizzle
10:53 PM 51.8 °F - 46.4 °F 82% 30.26 in 8.0 mi NE 6.9 mph - N/A Rain Light Rain
10:55 PM 51.3 °F - 46.6 °F 84% 30.26 in 7.0 mi NE 6.9 mph - 0.02 in Rain Rain
11:00 PM 51.8 °F - 46.4 °F 82% 30.26 in 7.0 mi NNE 6.9 mph - N/A Rain Rain
11:04 PM 51.8 °F - 46.4 °F 82% 30.26 in 6.0 mi NE 6.9 mph - N/A Rain Rain
11:05 PM 51.8 °F - 46.4 °F 82% 30.26 in 6.0 mi NE 6.9 mph - N/A Rain Rain
11:27 PM 50.0 °F - 46.4 °F 87% 30.25 in 5.0 mi NNE 10.4 mph - N/A Rain Heavy Rain
11:30 PM 50.0 °F - 46.4 °F 87% 30.26 in 4.0 mi NE 8.1 mph - N/A Rain Heavy Rain
11:36 PM 50.0 °F - 48.2 °F 94% 30.26 in 5.0 mi NE 9.2 mph - N/A Rain Rain
11:37 PM 50.0 °F - 48.2 °F 94% 30.26 in 5.0 mi NE 8.1 mph - N/A Rain Rain
11:46 PM 50.0 °F - 48.2 °F 94% 30.27 in 5.0 mi NE 6.9 mph - N/A Rain Rain
11:55 PM 50.7 °F - 47.7 °F 89% 30.25 in 5.0 mi ENE 6.9 mph - 0.13 in Rain Rain
11:59 PM 50.0 °F - 48.2 °F 94% 30.25 in 5.0 mi East 6.9 mph - N/A Rain Rain